Weather Service Report


477 
ASUS42 KFFC 231503
RWRGA 
WEATHER ROUNDUP FOR GEORGIA
NATIONAL WEATHER SERVICE PEACHTREE CITY GA
1100 AM EDT WED APR 23 2014

NOTE: "FAIR" INDICATES FEW OR NO CLOUDS BELOW 12,000 FEET WITH NO
SIGNIFICANT WEATHER AND/OR OBSTRUCTIONS TO VISIBILITY. 

* = USE WITH CAUTION. THE STATIONS MARKED WITH AN ASTERISK MAY NOT
REPORT WEATHER SUCH AS PRECIPITATION, FOG, OR THUNDER AND ARE NOT 
QUALITY CONTROLLED BY NWS.

THE REMARK "TC" DENOTES TEMPERATURE READING IN DEGREES CELSIUS.

GAZ001>058-231600-
NORTH GEORGIA
  
CITY           SKY/WX    TMP DP  RH WIND       PRES   REMARKS
ATLANTA        MOSUNNY   66  44  45 NW10      29.97R                  
ATHENS         SUNNY     70  48  45 MISG      29.93S                  
CHAMBLEE       SUNNY     66  40  38 W9        29.97R                  
PEACHTREE CITY SUNNY     68  45  43 NW9       29.98R                  
ROME           SUNNY     63  40  42 N13       30.01R                  
WEST ATLANTA   SUNNY     65  44  46 NW12      29.98R                  
GAINESVILLE    SUNNY     66  39  37 NW10      29.96R                  
CARTERSVILLE   SUNNY     65  41  41 VRB5      30.01R                  

  
CITY           SKY/WX    TMP DP  RH WIND       PRES   REMARKS
DALTON*        SUNNY     59  41  51 N9G18     30.02S                  
LAWRENCEVILLE* SUNNY     64  39  39 W6        29.95R                  
MARIETTA       SUNNY     65  44  45 NW12      29.99R                  
KENNESAW*      SUNNY     61  45  55 NW8       30.00R                  
$$

GAZ059>098-102>109-231600-
CENTRAL GEORGIA
  
CITY           SKY/WX    TMP DP  RH WIND       PRES   REMARKS
AUGUSTA-BUSH   SUNNY     73  58  59 NE6       29.91R                  
AUGUSTA-DANIEL SUNNY     71  56  58 N8        29.92R                  
COLUMBUS       SUNNY     70  54  56 NE5       29.97R                  
MACON          SUNNY     70  56  61 NW7       29.95R                  
ROBINS AFB     SUNNY     71  57  60 NW8       29.95R                  

  
CITY           SKY/WX    TMP DP  RH WIND       PRES   REMARKS
LAGRANGE*      SUNNY     69  50  50 N5        29.99R                  
SYLVANIA*      SUNNY     74  60  62 NW6       29.92R                  
MILLEDGEVILLE* SUNNY     73  41  31 NW3       29.92S                  
$$

GAZ099>101-110>166-231600-
SOUTH GEORGIA
  
CITY           SKY/WX    TMP DP  RH WIND       PRES   REMARKS
SAVANNAH       MOSUNNY   72  63  73 W7        29.91S                  
VALDOSTA       MOSUNNY   80  62  54 VRB5      29.96R                  
ALMA           SUNNY     74  61  63 NW9       29.94R                  
ST SIMONS      SUNNY     75  61  61 W13       29.92R                  
FT STEWART     MOSUNNY   69  67  95 W8        29.92R                  
ALBANY         SUNNY     73  63  70 VRB3      29.98R                  
HUNTER AFB     MOSUNNY   70  64  82 W8        29.90R                  
MOODY AFB      SUNNY     74  63  66 NW3       29.95R                  
BRUNSWICK      SUNNY     77  63  61 W9        29.93S                  

  
CITY           SKY/WX    TMP DP  RH WIND       PRES   REMARKS
BAINBRIDGE*    MOSUNNY   77  66  69 N5        29.97R                  
MOULTRIE*      MOSUNNY   73  64  73 NW5       29.97S                  
VIDALIA*       SUNNY     70  63  78 W3        29.94S                  
DOUGLAS*       SUNNY     73  63  68 W3        29.97R                  
$$

Return to Home page


Western Regional Climate Center, wrcc@dri.edu